This is the latest recevied weather packets stored in our database for station/object VE6CPK-13. If no packets are shown the sender has not sent any weather packets the latest 10 day(s).
| Time | Temp. | Humidity | Pressure | Rain* | Wind** | Luminosity | Snow |
|---|---|---|---|---|---|---|---|
| 1777469080 | 2.78° C | 67% | 1018.8 hPa | 0 mm | - | - | - |
| 1777468780 | 2.78° C | 68% | 1018.7 hPa | 0 mm | - | - | - |
| 1777468480 | 2.78° C | 69% | 1018.5 hPa | 0 mm | - | - | - |
| 1777468180 | 2.22° C | 69% | 1018.5 hPa | 0 mm | - | - | - |
| 1777467880 | 2.22° C | 70% | 1018.5 hPa | 0 mm | - | - | - |
| 1777467581 | 2.22° C | 71% | 1018.4 hPa | 0 mm | - | - | - |
| 1777467281 | 2.22° C | 71% | 1018.4 hPa | 0 mm | - | - | - |
| 1777466980 | 2.22° C | 76% | 1018.4 hPa | 0 mm | - | - | - |
| 1777466681 | 2.22° C | 73% | 1018.3 hPa | 0 mm | - | - | - |
| 1777466381 | 1.67° C | 72% | 1018.4 hPa | 0 mm | - | - | - |
| 1777466081 | 1.67° C | 73% | 1018.4 hPa | 0 mm | - | - | - |
| 1777465780 | 1.67° C | 73% | 1018.3 hPa | 0 mm | - | - | - |
| 1777465481 | 1.67° C | 74% | 1018.2 hPa | 0 mm | - | - | - |
| 1777465181 | 1.67° C | 74% | 1018.3 hPa | 0 mm | - | - | - |
| 1777464879 | 1.67° C | 74% | 1018.2 hPa | 0 mm | - | - | - |
| 1777464580 | 1.67° C | 73% | 1018.2 hPa | 0 mm | - | - | - |
| 1777464280 | 1.67° C | 73% | 1018.2 hPa | 0 mm | - | - | - |
| 1777463980 | 1.67° C | 73% | 1018.3 hPa | 0 mm | - | - | - |
| 1777463680 | 1.67° C | 73% | 1018.3 hPa | 0 mm | - | - | - |
| 1777463380 | 1.67° C | 73% | 1018.3 hPa | 0 mm | - | - | - |
| 1777463080 | 1.67° C | 73% | 1018.3 hPa | 0 mm | - | - | - |
| 1777462781 | 1.67° C | 72% | 1018.3 hPa | 0 mm | - | - | - |
| 1777462481 | 1.67° C | 70% | 1018.3 hPa | 0 mm | - | - | - |
| 1777462180 | 1.67° C | 69% | 1018.2 hPa | 0 mm | - | - | - |
| 1777461880 | 1.67° C | 69% | 1018.2 hPa | 0 mm | - | - | - |
* Rain latest hour (hover to see other rain measurements)
** Current wind speed in m/s (hover to see current wind gust speed)